Regional Weather Roundup
Issued by NWS

Home | Current Version | Previous Version | Text Only | Print | Product List | Glossary On
Versions: 1 2 3 4 5 6 7 8 9 10 11 12 13 14 15 16 17 18 19 20 21 22 23 24 25 26 27 28 29 30 31 32 33 34 35 36 37 38 39 40 41 42 43 44 45 46 47 48 49 50
545
ASUS43 KBIS 232010
RWRND
NORTH DAKOTA REGIONAL WEATHER ROUNDUP
NATIONAL WEATHER SERVICE EASTERN NORTH DAKOTA/GRAND FORKS ND
300 PM CDT MON APR 23 2018

  NOTE: "FAIR" INDICATES FEW OR NO CLOUDS BELOW 12,000 FEET WITH NO
  SIGNIFICANT WEATHER AND/OR OBSTRUCTIONS TO VISIBILITY.

NDZ001>003-009>011-017-232100-
...NORTHWEST NORTH DAKOTA...

CITY           SKY/WX    TMP DP  RH WIND       PRES   REMARKS
WILLISTON      CLOUDY    49  32  52 N22G29    30.30F
MINOT          PTSUNNY   54  35  48 NW17      30.24F
MINOT AFB      NOT AVBL
$$

NDZ018>021-031>035-040>046-232100-
...SOUTHWEST NORTH DAKOTA...

CITY           SKY/WX    TMP DP  RH WIND       PRES   REMARKS
BISMARCK       PTSUNNY   64  33  31 NE15G24   30.18F
DICKINSON      CLOUDY    51  32  48 NE18      30.19F
GARRISON         N/A     54  36  50 N10G22    30.21F
HETTINGER      CLOUDY    60  32  34 NE18G29   30.13F
$$

NDZ004>008-012>016-024-026-027-054-232100-
...NORTHEAST NORTH DAKOTA...

CITY           SKY/WX    TMP DP  RH WIND       PRES   REMARKS
GRAND FORKS    FAIR      61  38  42 N13G18    30.19S
GRAND FORKS AF NOT AVBL
DEVILS LAKE    FAIR      57  33  40 NW9       30.22S
$$

NDZ022-023-025-028>030-036>039-047>053-232100-
...SOUTHEAST NORTH DAKOTA...

CITY           SKY/WX    TMP DP  RH WIND       PRES   REMARKS
JAMESTOWN      FAIR      64  38  38 NE10G16   30.17F
FARGO          FAIR      66  42  41 N13       30.16F
WAHPETON       FAIR      64  34  32 CALM      30.16F
$$




USA.gov is the U.S. government's official web portal to all federal, state and local government web resources and services.